This demonstration page uses our WeatherBlox Daily Observations layout. Learn more.

Left ArrowRight Arrow

41.55636, -103.73856

Hourly Observations for August 6, 2021

Temp ( °F °C ) Dew Point ( °F °C ) Humidity (%) Winds ( mph kmh ) Pressure ( in mb ) Visibility ( mi km ) Precip ( " mm )
12:58 am 00:58 Clear 73 23 40 4.5 30 30 SSW 14 22 29.85 1011 10 16 0.00 0.00
1:58 am 01:58 Clear 71 21.7 40 4.4 32 32 SW 13 20 29.82 1010 10 16 0.00 0.00
2:58 am 02:58 Clear 74 23.2 40 4.7 30 30 S 26 43 29.76 1008 10 16 0.00 0.00
3:58 am 03:58 Clear 70 21.3 43 6.1 37 37 SSW 23 37 29.78 1009 10 16 0.00 0.00
4:58 am 04:58 Clear 68 19.8 44 6.5 42 42 WSW 8 13 29.82 1010 10 16 0.00 0.00
5:58 am 05:58 Sunny 63 17.3 45 7.1 51 51 WSW 6 9 29.83 1010 10 16 0.00 0.00
6:58 am 06:58 Sunny 61 16.3 47 8.5 60 60 W 8 13 29.85 1011 10 16 0.00 0.00
7:58 am 07:58 Sunny 67 19.7 44 6.7 43 43 W 10 17 29.88 1012 10 16 0.00 0.00
8:58 am 08:58 Sunny 74 23.1 45 7.2 36 36 NW 10 17 29.86 1011 10 16 0.00 0.00
9:58 am 09:58 Sunny 79 25.9 44 6.9 30 30 NNW 12 19 29.85 1011 10 16 0.00 0.00
10:58 am 10:58 Sunny 84 28.8 43 6.2 24 24 NNE 12 19 29.84 1011 10 16 0.00 0.00
11:58 am 11:58 Partly Cloudy with Light Showers 83 28.5 46 7.9 27 27 E 12 19 29.80 1009 10 16 0.00 0.00
12:58 pm 12:58 Partly Cloudy 87 30.3 43 6 22 22 E 10 17 29.79 1009 10 16 0.00 0.00
1:58 pm 13:58 Sunny 90 32.4 42 5.4 18 18 SE 13 20 29.75 1008 10 16 0.00 0.00
2:58 pm 14:58 Mostly Sunny 91 32.7 38 3.1 15 15 S 12 19 29.72 1007 10 16 0.00 0.00
3:58 pm 15:58 Mostly Cloudy 89 31.4 33 0.8 14 14 WNW 12 19 29.78 1008 10 16 0.00 0.00
4:58 pm 16:58 Mostly Sunny 77 25.1 46 7.8 33 33 SSE 15 24 29.75 1008 10 16 0.00 0.00
5:58 pm 17:58 Mostly Cloudy 83 28.6 46 7.8 27 27 WSW 7 11 29.75 1007 10 16 0.00 0.00
6:58 pm 18:58 Mostly Cloudy 80 26.9 46 7.7 30 30 SSW 8 13 29.80 1009 10 16 0.00 0.00
7:58 pm 19:58 Partly Cloudy 79 26.2 44 6.7 29 29 S 16 26 29.78 1008 10 16 0.00 0.00
8:58 pm 20:58 Mostly Cloudy 75 24.1 47 8.2 36 36 SW 12 19 29.80 1009 10 16 0.00 0.00
9:58 pm 21:58 Mostly Cloudy 73 22.6 47 8.5 41 41 SW 22 35 29.80 1009 10 16 0.00 0.00
10:58 pm 22:58 Mostly Cloudy 75 23.9 44 6.6 33 33 W 14 22 29.80 1009 10 16 0.00 0.00
11:58 pm 23:58 Mostly Cloudy 73 23 45 7.4 37 37 SSW 23 37 29.78 1008 10 16 0.00 0.00

Powered by AerisWeather